Regional Weather Roundup
Issued by NWS Wakefield, VA

Home | Current Version | Previous Version | Graphics & Text | Print | Product List | Glossary On
Versions: 1 2 3 4 5 6 7 8 9 10 11 12 13 14 15 16 17 18 19 20 21 22 23 24 25 26 27 28 29 30 31 32 33 34 35 36 37 38 39 40 41 42 43 44 45 46 47 48 49 50
000
ASUS41 KAKQ 211914
RWRAKQ

REGIONAL WEATHER ROUNDUP
NATIONAL WEATHER SERVICE WAKEFIELD VA
200 PM EST TUE FEB 21 2017

Note: "fair" indicates few or no clouds below 12,000 feet with no
significant weather and/or obstructions to visibility. * = Denotes
station may not report precipitation (e.g., rain,snow,etc.),
thunder or fog.

VAZ042-051-052>054-056-212000-
NORTHERN VIRGINIA

CITY           SKY/WX    TMP DP  RH WIND       PRES   REMARKS
WASH NATIONAL  CLOUDY    56  30  37 S8        30.22F
DULLES         CLOUDY    57  28  33 S8G16     30.20F
FORT BELVOIR   PTSUNNY   55  30  37 SE8       30.21F
QUANTICO       CLOUDY    53  36  52 S6        30.22F
FREDERICKSBRG* MOSUNNY   59  36  43 S8        30.20F
STAFFORD*      MOSUNNY   58  32  38 S6        30.24F
WARRENTON      CLOUDY    61  25  25 S5        30.19F
CULPEPER*      MOSUNNY   59  34  39 SW6       30.20F
MANASSAS*      MOSUNNY   56  31  38 S7        30.20F
LEESBURG*      PTSUNNY   55  32  41 MISG      30.20F
WINCHESTER     PTSUNNY   54  32  43 SE9       30.15F
FRONT ROYAL*   CLEAR     59  34  38 S5        30.13F
LURAY*         MOCLDY    55  36  47 SW9       30.14F
$$

VAZ048-049-060>072-079>083-212000-
CENTRAL AND SOUTH CENTRAL VIRGINIA

CITY           SKY/WX    TMP DP  RH WIND       PRES   REMARKS
RICHMOND       CLOUDY    58  32  37 SE7       30.22F
CHESTERFIELD*  FAIR      57  27  30 S8        30.23F
PETERSBURG*    MOSUNNY   58  35  43 E5        30.22F
HANOVER        PTSUNNY   57  34  41 S7        30.23F
TAPPAHANNOCK*  PTSUNNY   57  24  27 E9        30.23F
QUINTON*       FAIR      57  36  45 SW6       30.22F
CHARLOTTSVILLE CLOUDY    58  34  40 S8        30.18F
GORDONSVILLE*  CLOUDY    57  35  42 SW7       30.18F
ORANGE*        PTSUNNY   55  32  41 SE3       30.20F
LOUISA*        MOSUNNY   61  37  41 S7        30.18F
BUMPASS*       FAIR      56  34  43 SE6       30.21F
FARMVILLE*     MOSUNNY   61  37  40 S3        30.18F
CREWE*         FAIR      59  37  44 SE7       30.19F
FORT PICKETT*  FAIR      58  29  32 E6        30.20F
CHASE CITY*    FAIR      60  33  35 E5        30.18F
CLARKSVILLE*   FAIR      59  37  44 E7        30.19F
SOUTH HILL*    MOSUNNY   60  38  43 E3        30.25F
LAWRENCEVILLE* FAIR      59  33  36 NE3       30.20F
EMPORIA*       PTSUNNY   59  34  38 SE3       30.22F
$$

VAZ088>098-212000-
SOUTHEAST VIRGINIA

CITY           SKY/WX    TMP DP  RH WIND       PRES   REMARKS
NORFOLK        CLOUDY    54  40  59 E13       30.23F
VIRGINIA BEACH CLOUDY    52  37  56 E12       30.24F
NORFOLK NAVAL  CLOUDY    54  38  54 E13       30.25F
WEST POINT*    MOSUNNY   56  36  48 S8        30.25F
SALUDA*        FAIR      50  41  71 E8        30.24F
NEWPORT NEWS   MOSUNNY   55  38  52 MISG      30.24F
LANGLEY AFB    PTSUNNY   54  39  57 E8        30.24F
FORT EUSTIS    MOSUNNY   61  39  45 SE8       30.20F
WILLIAMSBURG*  MOSUNNY   61  41  48 CALM      30.24F
HR EXEC AP*    FAIR      61  37  41 E8        30.20F
FRANKLIN*      MOSUNNY   60  35  39 E5        30.22F
US460-WAKEFLD  MOSUNNY   58  36  43 CALM      30.22F
$$

VAZ020-022-025-037-045-212000-
WEST CENTRAL AND SOUTHWEST VIRGINIA

CITY           SKY/WX    TMP DP  RH WIND       PRES   REMARKS
STAUNTON*      CLOUDY    56  32  40 S7        30.16F
WAYNESBORO*    CLOUDY    57  30  36 S3        30.15F
HOT SPRINGS VA CLOUDY    48  30  49 CALM      30.13F
LYNCHBURG      MOSUNNY   57  33  40 S8        30.19F
DANVILLE       MOSUNNY   62  37  39 S6        30.17F
SOUTH BOSTON*  FAIR      61  36  39 S5        30.19F
MARTINSVILLE   SUNNY     61  37  39 E6        30.18F
ROANOKE        MOSUNNY   58  36  43 SE9       30.16F
BLACKSBURG     SUNNY     62  41  46 CALM      30.15F
DUBLIN*        SUNNY     63  43  47 S13G20    30.13F
MARION*        PTSUNNY   63  42  46 S13G22    30.13F
HILLSVILLE*    MOSUNNY   56  42  58 S8        30.13F
RICHLANDS*     FAIR      65  40  40 SW7       30.08F
WISE*          MOSUNNY   64  34  32 S8        30.09F
ABINGDON*      SUNNY     69  40  35 W12G18    30.08F
$$

MDZ021>025-VAZ099-100-212000-
SOUTHERN MARYLAND AND THE DELMARVA PENINSULA

CITY           SKY/WX    TMP DP  RH WIND       PRES   REMARKS
PATUXENT RIVER PTSUNNY   48  39  71 SE10      30.24F
BAY BRIDGE APT MOSUNNY   46  36  66 CALM      30.24F
LEONARDTOWN    PTSUNNY   52  32  46 S5        30.24F
DOVER          CLOUDY    46  36  68 E8G18     30.25F
GEORGETOWN     CLOUDY    54  36  50 S9        30.26F
EASTON         PTSUNNY   55  30  38 S7        30.28F
CAMBRIDGE      NOT AVBL
SALISBURY      MOSUNNY   54  36  50 S8        30.25F
OCEAN CITY     MOSUNNY   47  37  68 SE8       30.28F
WALLOPS ISLAND CLOUDY    51  37  58 SE10      30.27F
ACCOMACK*      PTSUNNY   52  37  57 E6        30.26F
$$

NCZ012>017-030>032-212000-
NORTH CENTRAL AND EASTERN NORTH CAROLINA

CITY           SKY/WX    TMP DP  RH WIND       PRES   REMARKS
ROANOKE RAPIDS FAIR      61  37  41 E5        30.20F
RALEIGH        CLOUDY    65  34  31 VRB3      30.17F
ELIZABETH CITY PTSUNNY   57  40  52 E12       30.24F
AHOSKIE*         N/A     59  42  52 E5        30.22F
EDENTON*       PTSUNNY   60  45  56 E10       30.23F
CURRITUCK*     PTSUNNY   53  39  58 NE7       30.25F
KILL DEVIL HLS NOT AVBL
MANTEO         PTSUNNY   53  43  71 NE12      30.24F
CAPE HATTERAS  CLOUDY    65  52  62 VRB6      30.20F
TARBORO*       NOT AVBL
GOLDSBORO      NOT AVBL
WASHINGTON     CLOUDY    64  47  54 CALM      30.20F
GREENVILLE     CLOUDY    64  46  52 S6        30.21F
NEW BERN       CLOUDY    65  49  56 SE9       30.20F
WILMINGTON     CLOUDY    65  51  60 E9        30.16F
$$

VAZ048-212000-
ELSEWHERE

CITY           SKY/WX    TMP DP  RH WIND       PRES   REMARKS
HARRISBURG PA  CLOUDY    50  28  42 SE8       30.19F
BALTIMORE      PTSUNNY   51  30  44 SE7G18    30.22F
ANNAPOLIS      PTSUNNY   46  37  71 SE13      30.23F
ANDREWS AFB    CLOUDY    55  30  38 S10       30.20F
PHILADELPHIA   CLOUDY    51  29  42 S12       30.25F
HENDERSON NC   CLOUDY    60  34  38 E3        30.18F
GREENSBORO     CLOUDY    61  38  42 S8        30.15F
ROCKY MOUNT    PTSUNNY   62  40  44 CALM      30.19F
$$

VAZ100-212000-
MARINE

STATION/POSITION TIME  TEMP    WIND        PRES    WAVE   SWELL
                       AIR SEA DIR/SP/G            HT/PER HT/PER
                 (UTC) (F)     (DEG/KT/KT) (MB)    (FT/S) (FT/S)
CAPE MAY NJ      1848   45 42   90/  8/ 13 1024.8F
LEWES DE         1842   46 43  120/  9/ 12 1025.2F
OCEAN-CITY-INLET 1842   47 44  130/  5/  8 1025.8F
WACHAPREAGUE VA  1842   49 49  100/  7/  9 1025.0F
THOMAS POINT MD  1900   43 42  130/  6/  7   N/A
GOOSES REEF MD   1900   45 43  170/  8/ 10 1024.8    0
COVE POINT MD    1842   43     180/  6/  7 1025.0
SOLOMONS ISLAND  1842   47 44  130/ 13/ 15   N/A
BISHOPS HEAD MD  1842   48 47  160/  8/  9 1024.8F
PINEY POINT MD   1848          140/ 11/ 12   N/A
POTOMAC MD       1900   44 44  110/  6/  8 1023.4    0
CAMBRIDGE MD     1842   54 41  160/  4/  9 1023.4F
LEWISETTA VA     1842   45 47  100/ 11/ 13 1023.8F
RAPPAHANNOCK LGT 1848          360/  5/  5 1025.0F
YORK RVR RNG VA  1842   47      80/  9/ 10 1023.5F
YORKTOWN VA      1842   48 46   70/  9/ 10 1024.0F
JAMESTOWN VA     1900   54 51  100/  8/ 12   N/A     0
DOMINION TERM VA 1842   50      80/ 10/ 13 1024.1F
KIPTOPEKE VA     1842      48  120/  9/ 10   N/A
CHES BAY BRIDGE  1842   47 47   80/  8/ 10 1024.6F
CAPE HENRY VA    1842   48      70/  8/ 10   N/A
WILLOUBY STN VA  1842   48      80/ 11/ 12 1025.0F
S CRANEY ISL VA  1842   52      70/ 10/ 12 1023.7F
CAPE HENRY BUOY  1842      48                N/A     3/ 6
OFFSHORE WE BUOY 1851      48                N/A     4/ 6
64NM E OF VA BCH 1850   51 54   50/ 12/ 14 1024.0F   4/ 6   3/ 6
DUCK PIER NC     1842   49 48   30/ 11/ 12 1023.5F
44100 DUCK FRF   1805      49                N/A     4/ 8
44056 DUCK FRF   1830      49                N/A     4/ 7
OREGON INLET NC  1842   51 51   10/  9/ 14 1023.4F
HATTERAS NC      1842   55 58   20/ 13/ 14 1022.4F
DIAMOND SHLS NC  1850   64 75   90/  8/ 12 1022.2F   5/ 9   5/ 9
CAPE LOOKOUT NC  1900   58      30/ 13/ 15 1021.7F
$$



USA.gov is the U.S. government's official web portal to all federal, state and local government web resources and services.